Flag for Spain Weather past 2 weeks in Almería, Spain

Now
82 °F

Warm.


Feels Like: 90 °F
Forecast: 69 / 89 °F
Wind: 2 mph from Southwest

Location: Almeria / Aeropuerto

Current Time: Aug 27, 2014 at 11:38:14 PM

Latest Report: Aug 27, 2014 at 10:00 PM


Visibility: N/A

Pressure: 29.94 "Hg

Humidity: 84%

Dew point: 77 °F

Location of AlmeríaLocation

Historic Weather in Almería — Graph

°F

Almería temperature yesterday

Maximum temperature yesterday: 86 °F (at 5:00 PM)
Minimum temperature yesterday: 74 °F (at 4:00 AM)
Average temperature yesterday: 81 °F

Past Weeks' High & Low Weather Summary

 TemperatureHumidityPressure
High94 °F (Aug 14, 2:00 PM)90% (Aug 13, 6:00 AM)30.09 "Hg (Aug 13, 6:00 AM)
Low73 °F (Aug 21, 7:00 AM)27% (Aug 18, 11:00 AM)29.78 "Hg (Aug 13, 7:00 PM)
Average81 °F67%29.95 "Hg
* Reported Aug 12 10:00 PM — Aug 27 10:00 PM, Almería, Weather by CustomWeather, © 2014

Note: Actual official high and low records may vary slightly from our data, if they occured in-between our weather recording intervals... More about our weather records

Advertising

Almería weather history for previous 24 hours

 ConditionsComfort  
Time TempWeatherWind HumidityBarometerVisibility
10:00 PM
Aug 27
82 °FWarm.2 mph84%29.94 "HgN/A
9:00 PM83 °FWarm.No wind78%29.91 "HgN/A
7:00 PM87 °FWarm.3 mph67%29.89 "HgN/A
6:00 PM87 °FWarm.6 mph68%29.90 "HgN/A
5:00 PM88 °FSunny.6 mph65%29.91 "Hg19 mi
4:00 PM89 °FHot.8 mph61%29.92 "HgN/A
3:00 PM90 °FHot.2 mph47%29.93 "HgN/A
2:00 PM87 °FSunny.5 mph57%29.94 "Hg19 mi
1:00 PM84 °FWarm.5 mph70%29.96 "HgN/A
12:00 PM82 °FWarm.7 mph76%29.96 "HgN/A
11:00 AM82 °FPassing clouds.5 mph74%29.95 "Hg9 mi
10:00 AM81 °FWarm.1 mph73%29.94 "HgN/A
9:00 AM79 °FWarm.1 mph77%29.93 "HgN/A
8:00 AM74 °FSunny.3 mph77%29.92 "Hg19 mi
7:00 AM73 °FMild.No wind71%29.90 "HgN/A
6:00 AM74 °FMild.2 mph59%29.90 "HgN/A
5:00 AM75 °FMild.2 mph82%29.90 "HgN/A
4:00 AM76 °FMild.2 mph80%29.92 "HgN/A
3:00 AM77 °FWarm.8 mph79%29.94 "HgN/A
2:00 AM78 °FWarm.8 mph78%29.96 "HgN/A
1:00 AM78 °FWarm.8 mph76%29.95 "HgN/A
12:00 AM79 °FWarm.6 mph75%29.94 "HgN/A
11:00 PM
Aug 26
80 °FWarm.6 mph71%29.93 "HgN/A
Weather by CustomWeather, © 2014

See weather overviewHow to use our weather pages